PST,Max TemperatureF,Mean TemperatureF,Min TemperatureF,Max Dew PointF,MeanDew PointF,Min DewpointF,Max Humidity, Mean Humidity, Min Humidity, Max Sea Level PressureIn, Mean Sea Level PressureIn, Min Sea Level PressureIn, Max VisibilityMiles, Mean VisibilityMiles, Min VisibilityMiles, Max Wind SpeedMPH, Mean Wind SpeedMPH, Max Gust SpeedMPH,PrecipitationIn, CloudCover, Events, WindDirDegrees
2012-11-1,70,60,50,57,55,46,100,78,55,30.04,29.99,29.96,10,10,7,13,3,17,0.11,5,Rain,229
2012-11-2,68,57,46,52,48,45,93,75,56,30.07,30.02,29.98,10,10,10,12,3,17,0.00,2,,204
2012-11-3,73,61,48,53,49,46,93,67,41,30.12,30.08,30.04,10,10,10,8,2,16,0.00,1,,85
2012-11-4,78,64,50,54,51,48,89,65,40,30.18,30.13,30.10,10,10,10,7,2,13,0.00,0,,102
2012-11-5,79,65,50,57,53,49,96,69,42,30.14,30.06,30.01,10,10,9,13,3,24,0.00,0,,47
2012-11-6,79,64,49,58,53,48,100,71,42,30.06,30.01,29.95,10,9,5,9,2,28,0.00,0,,26
2012-11-7,69,59,48,54,51,48,100,78,55,30.00,29.94,29.88,10,9,5,21,7,31,0.00,0,,247
2012-11-8,61,52,42,49,41,35,83,67,51,29.92,29.88,29.86,10,10,8,20,9,25,0.02,2,Rain,228
2012-11-9,57,49,40,44,40,35,100,74,47,29.94,29.90,29.87,10,9,2,15,6,23,0.18,3,Rain-Thunderstorm,220
2012-11-10,58,49,39,40,36,29,92,63,33,30.22,30.07,29.95,10,10,10,13,4,18,0.00,0,,206
2012-11-11,57,46,35,38,37,34,100,74,47,30.36,30.31,30.23,10,10,7,10,2,15,0.00,0,,63
2012-11-12,61,49,37,38,35,31,92,62,32,30.36,30.30,30.23,10,10,8,14,4,22,0.00,0,,105
2012-11-13,66,52,38,41,37,35,92,63,34,30.24,30.15,30.07,10,10,10,12,3,21,0.00,0,,76
2012-11-14,67,56,45,48,43,40,86,64,42,30.10,30.05,29.99,10,10,10,12,3,17,0.00,0,,103
2012-11-15,66,53,39,47,43,38,93,69,44,30.01,29.97,29.92,10,8,6,9,2,15,0.00,1,,51
2012-11-16,62,54,45,55,51,44,100,85,69,29.96,29.92,29.84,8,4,2,8,3,15,0.13,7,Rain,14
2012-11-17,63,59,54,58,54,51,100,84,67,30.00,29.87,29.78,10,5,2,21,7,26,0.43,8,Rain,224
2012-11-18,62,54,46,52,47,40,100,73,46,30.14,30.07,29.98,10,10,8,10,3,22,0.01,4,,208
2012-11-19,67,59,50,49,46,43,89,67,44,30.19,30.15,30.13,10,10,10,14,5,25,0.00,3,,185
2012-11-20,67,61,55,57,52,47,86,75,63,30.13,30.06,29.99,10,9,2,21,11,26,0.09,7,Rain,199
2012-11-21,65,56,46,57,53,44,100,78,56,30.17,30.09,30.01,10,6,2,14,4,26,0.56,6,Rain,210
2012-11-22,65,53,40,46,43,40,100,72,44,30.23,30.18,30.15,10,10,10,8,2,23,0.00,0,,156
2012-11-23,65,52,39,48,44,39,100,78,56,30.25,30.19,30.14,10,10,8,10,2,14,0.00,0,,72
2012-11-24,66,53,39,48,44,38,100,74,48,30.20,30.10,30.00,10,8,0,9,2,22,0.00,1,Fog,17
2012-11-25,65,53,40,51,45,40,100,78,56,29.99,29.95,29.89,10,10,8,7,2,20,0.00,0,Fog,109
2012-11-26,63,52,40,50,46,39,100,80,60,30.08,30.02,29.95,10,4,0,9,2,13,0.00,1,Fog,20
2012-11-27,63,53,43,51,46,43,100,82,64,30.12,30.05,29.97,10,4,0,8,2,12,0.00,3,Fog,120
2012-11-28,64,56,47,56,51,46,100,84,67,30.01,29.91,29.83,10,7,2,16,4,28,0.24,5,Rain,186
2012-11-29,63,56,49,57,52,46,93,75,56,30.01,29.93,29.82,10,10,2,24,10,33,0.11,6,Rain,165
2012-11-30,62,60,57,58,56,53,93,86,78,30.02,29.87,29.74,10,6,2,25,11,35,1.62,7,Rain,191